Location: Recife
(8.0585°S, 34.8848°W)
Time: 20:29:38
(UTC-03:00)

Explorer 11/Cluster Stage 4 - Pass Details

Date: 14 April 2026
Orbit: 463 x 1174 km, 28.8° (Epoch: 16 May)

Event Time Altitude Azimuth Distance (km) Brightness Sun altitude
Rises 18:17:08 0° 325° (NW) 3,564 10.6 -15.4°
Reaches altitude 10° 18:20:37 10° 340° (NNW) 2,476 9.5 -16.2°
Maximum altitude 18:24:51 20° 26° (NNE) 1,681 8.1 -17.3°
Enters shadow 18:26:23 18° 49° (NE) 1,729 8.0 -17.7°
Drops below altitude 10° 18:28:33 10° 74° (ENE) 2,120 - -18.2°
Sets 18:31:15 0° 91° (E) 2,909 - -18.9°
